Tracking 30970 objects as of 3-Jul-2025
HD Live streaming from Space Station
objects crossing your sky now

SL-14 DEB

Track SL-14 DEB now!
10-day predictions


NORAD ID: 45276
Int'l Code: 1991-056N
Perigee: 1,121.9 km
Apogee: 1,196.5 km
Inclination: 82.6 °
Period: 108.4 minutes
Semi major axis: 7530 km
RCS: Unknown
Launch date: August 15, 1991
Source: Commonwealth of Independent States (former USSR) (CIS)
Launch site: PLESETSK MISSILE AND SPACE COMPLEX (PKMTR)

Note: This is SATELLITE DEBRIS
Your satellite tracking list
PLATFORM-1
Track 1 satellite(s)




NASA's NSSDC Master Catalog

Two Line Element Set (TLE):
1 45276U 91056N   25183.87085846  .00000406  00000-0  85268-3 0  9992
2 45276  82.5883   7.4837 0049515 122.8905 237.7003 13.28591782260725
Source of the keplerian elements: AFSPC